DSP F17

operational
NORAD ID: 23435 Int'l Des: 1994-084 Owner: AFSMC Country: US
HEOCIRCULAR

About DSP F17

Description loading...

Live Position

Loading 3D Globe...

Upcoming Passes

Altitude History

Altitude vs Time

uPlot chart will show altitude changes over time

Two-Line Element Set

1 23435U 94084A 26062.45461584 .00000006 00000-0 00000+0 0 9990
2 23435 14.5020 355.8311 0009310 294.5025 249.3601 0.99082454 31760
Epoch: Mar 3, 2026 • Age: 33 hours

Current Status

Altitude 36152.6 km
Velocity 3.06 km/s
Sub-Earth Point 6.19°N, 148.5°W
Launch Date Dec 22, 1994
Age 31.1 years
Type military

Technical Details

Classification Payload
Mass 2360.00 kg
Dry Mass 2200.00 kg
Total Mass 2360.00 kg
Length 10.00 m
Diameter 3.30 m
Span 11.50 m
Shape Cyl + 4 Pan
Manufacturer TRW
Bus Type DSP B14
Phase Status Unknown Transfer Status
Owner/State AFSMC/US

Large Constellations

Loading constellations...